sat.trackr.live / text

‹ back to catalog

STARLINK-1583

NORAD 46064 · 2020-055AP

PAYLOAD ACTIVE UNKNOWN

§ Identity

Operator
Country
US
Launch date
2020-08-07
Launch site
AFETR
Launch vehicle
Mass (kg)
RCS (m²)

Purposes: comms

External: N2YO · Heavens-Above · Gunter

§ Orbital elements

Epoch: 2026-09-08T12:56:45.438720Z

Period
94.01 min
Inclination
53.1604°
Eccentricity
0.0000969
Mean motion
15.31713719 rev/d
Perigee alt
470.0 km
Apogee alt
471.4 km
Semi-major
6,848.8 km
B*
7.0782e-5
RAAN
343.4555°
Arg perigee
79.6405°
Mean anomaly
280.4706°
Rev number
33,707

§ Raw data

STARLINK-15831 46064U 20055AP  26251.53941480  .00001833  00000+0  70782-4 0  99942 46064  53.1604 343.4555 0000969  79.6405 280.4706 15.31713719337070

JSON: /api/v1/satellites/46064 · /tle

For live sub-satellite position, see the globe view (requires WebGL).

§ Visibility from observer

Set your observer location to see the next 7 days of passes ≥ 10°. The values pass through the URL so the page stays shareable.

No JS? Fill the form by hand. The geolocation button needs JavaScript.